Lanai City, HI

12:20 PM HST on December 18, 2017 (GMT -1000)
Lanai City

Weather History for PHNY - October, 2011

Change the Weather History Date:

Thursday, October 13, 2011

  Actual Average Record
Temperature  
Mean Temperature 74 °F -  
Max Temperature 81 °F 81 °F 84 °F (1996)
Min Temperature 66 °F 65 °F 60 °F (1980)
Cooling Degree Days 8    
Growing Degree Days 24 (Base 50)    
Moisture  
Dew Point 62 °F    
Average Humidity 72    
Maximum Humidity 88    
Minimum Humidity 54    
Precipitation  
Precipitation 0.00 in - - ()
Sea Level Pressure  
Sea Level Pressure 30.03 in    
Wind  
Wind Speed 14 mph (NE)    
Max Wind Speed 22 mph    
Max Gust Speed -    
Visibility 10 miles    
Events      
Averages and records for this station are not official NWS values.
T = Trace of Precipitation, MM = Missing Value Source: NWS Daily Summary

Daily Weather History Graph

Daily Weather History Graph

Search for Another Location

Airport or City:

Trip Planner

Search our weather history database for the weather conditions in past years. The results will help you decide how hot, cold, wet, or windy it might be!

Date:

Astronomy

Oct. 13, 2011 Rise Set
Actual Time 6:22 AM HST 6:05 PM HST
Civil Twilight 6:00 AM HST 6:27 PM HST
Nautical Twilight 5:34 AM HST 6:53 PM HST
Astronomical Twilight 5:08 AM HST 7:19 PM HST
Moon 7:10 PM HST (10/13) 7:44 AM HST (10/13)
Length of Visible Light 12h 27m
Length of Day
11h 42m
Full, 97% of the Moon is Illuminated
Oct 13
Full
Oct 19
Last Quarter
Oct 26
New
Nov 2
First Quarter
Nov 10
Full

Hourly Weather History & Observations

Time (HST) Temp. Heat Index Dew Point Humidity Pressure Visibility Wind Dir Wind Speed Gust Speed Precip Events Conditions
12:56 AM 68.9 °F - 61.9 °F 78% 30.02 in 10.0 mi ENE 6.9 mph - N/A   Clear
1:56 AM 68.0 °F - 61.9 °F 81% 30.01 in 10.0 mi NE 17.3 mph - N/A   Clear
2:56 AM 68.0 °F - 61.0 °F 78% 30.00 in 10.0 mi NNE 18.4 mph - N/A   Clear
3:56 AM 66.9 °F - 61.9 °F 84% 30.01 in 10.0 mi NE 11.5 mph - N/A   Clear
4:56 AM 66.2 °F - 62.6 °F 88% 30.06 in 10.0 mi NE 12.7 mph - N/A   Clear
5:56 AM 68.0 °F - 61.0 °F 78% 30.02 in 10.0 mi ENE 13.8 mph - N/A   Clear
6:56 AM 68.0 °F - 61.0 °F 78% 30.04 in 10.0 mi ENE 9.2 mph - N/A   Clear
7:56 AM 73.9 °F - 61.0 °F 64% 30.04 in 10.0 mi ENE 6.9 mph - N/A   Clear
8:56 AM 77.0 °F - 61.0 °F 58% 30.05 in 10.0 mi ENE 12.7 mph - N/A   Clear
9:56 AM 77.9 °F - 61.0 °F 56% 30.05 in 10.0 mi NE 15.0 mph - N/A   Clear
10:56 AM 77.0 °F - 61.9 °F 59% 30.04 in 10.0 mi NE 17.3 mph - N/A   Mostly Cloudy
11:56 AM 77.0 °F - 61.0 °F 58% 30.04 in 10.0 mi ENE 11.5 mph - N/A   Mostly Cloudy
12:56 PM 77.9 °F - 61.0 °F 56% 30.01 in 10.0 mi NE 11.5 mph - N/A   Partly Cloudy
1:56 PM 81.0 °F 82.2 °F 63.0 °F 54% 29.99 in 10.0 mi NE 18.4 mph - N/A   Clear
2:56 PM 79.9 °F - 64.9 °F 60% 29.98 in 10.0 mi NE 20.7 mph - N/A   Clear
3:56 PM 75.9 °F - 63.0 °F 64% 29.99 in 10.0 mi NE 21.9 mph - N/A   Clear
4:56 PM 75.9 °F - 63.9 °F 66% 30.00 in 10.0 mi NE 20.7 mph - N/A   Clear
5:56 PM 72.0 °F - 63.9 °F 76% 30.02 in 10.0 mi ENE 15.0 mph - N/A   Clear
6:56 PM 70.9 °F - 63.0 °F 76% 30.03 in 10.0 mi NE 17.3 mph - N/A   Clear
7:34 PM 69.8 °F - 62.6 °F 78% 30.10 in 10.0 mi East 10.4 mph - N/A   Clear
7:56 PM 70.0 °F - 63.0 °F 78% 30.05 in 10.0 mi NE 19.6 mph - N/A   Partly Cloudy
8:56 PM 70.0 °F - 63.0 °F 78% 30.06 in 10.0 mi NE 15.0 mph - N/A   Scattered Clouds
9:56 PM 70.0 °F - 63.9 °F 81% 30.06 in 10.0 mi NE 20.7 mph - N/A   Clear
10:45 PM 69.8 °F - 64.4 °F 83% 30.12 in 10.0 mi East 12.7 mph - N/A   Clear
10:56 PM 68.9 °F - 63.9 °F 84% 30.06 in 10.0 mi ENE 11.5 mph - N/A   Clear
11:56 PM 68.9 °F - 63.9 °F 84% 30.06 in 10.0 mi NE 13.8 mph - N/A   Clear